Weather observations for the past three days for
Bogue Field Marine Corps Auxiliary Field
Imperial (Metric)
Date Time (edt) Wind (mph) Vis. (mi.) Weather Sky Cond. Temperature (ºF) Relative Humidity Wind Chill (°F) Heat Index (°F) Pressure Precipitation (in)
Air Dwpt 6 hour altimeter (in) sea level (mb) 1 hr 3 hr 6 hr
Max. Min.
21 17:57 S 14 7.00 Fair CLR 84 75.9 77% 93 30.03 1017.3
21 16:57 SW 10 7.00 Fair CLR 82.9 75 77% 90 30.04 1017.4
21 15:57 SW 10 8.00 Fair CLR 84.9 75 72% 93 30.05 1018.0
21 14:57 S 10 7.00 Fair CLR 84 75.9 77% 93 30.07 1018.4
21 13:57 SW 9 7.00 Fair CLR 84 75 84.9 77 74% 92 30.08 1019.0
21 12:57 S 7 7.00 Fair CLR 84 75.9 77% 93 30.09 1019.3
21 11:57 Calm 7.00 Fair CLR 82 73 74% 87 30.09 1019.4
21 10:57 Calm 7.00 Fair CLR 82 73.9 77% 88 30.09 1019.2
21 09:57 Vrbl 3 6.00 Mostly Cloudy with Haze BKN120 79 73.9 85% 83 30.09 1019.3
21 08:57 W 5 6.00 Fair with Haze CLR 78.1 73 85% 81 30.09 1019.3
21 07:57 W 3 5.00 Fair with Haze CLR 78.1 73 82 77 85% 81 30.08 1018.8
21 06:57 Calm 6.00 Fair with Haze CLR 78.1 73 85% 81 30.07 1018.4
21 05:57 W 3 8.00 Fair CLR 78.1 73 85% 81 30.06 1018.2
21 04:57 W 6 7.00 Fair CLR 79 75 88% 83 30.05 1017.8
21 03:57 W 7 7.00 Thunderstorm FEW043 79 75.9 90% 83 30.05 1017.9
21 02:56 W 7 7.00 Mostly Cloudy BKN018 81 77 88% 88 30.06 1018.1
21 01:57 W 10 7.00 Mostly Cloudy SCT015 BKN023 BKN090 82 78.1 82.9 82 88% 91 30.07 1018.7
21 00:57 SW 13 G 23 7.00 Mostly Cloudy FEW065 BKN095 82.9 78.1 85% 93 30.08 1018.9
20 23:57 SW 16 G 24 7.00 A Few Clouds FEW020 82 78.1 88% 91 30.07 1018.7
20 22:57 SW 16 G 26 7.00 A Few Clouds FEW012 82.9 79 88% 94 30.08 1018.8
20 21:57 SW 15 7.00 A Few Clouds FEW017 82.9 78.1 85% 93 30.08 1019.0
20 20:57 SW 14 G 26 7.00 Fair CLR 82 77 85% 90 30.08 1018.9
20 19:57 SW 17 G 26 6.00 Fair with Haze CLR 82.9 75.9 86 82.9 79% 91 30.06 1018.2
20 18:57 SW 18 G 26 7.00 Fair CLR 84 75.9 77% 93 30.05 1018.0
20 17:57 SW 18 G 25 7.00 Fair CLR 84 77 80% 94 30.05 1017.9
20 16:57 SW 18 G 26 7.00 Fair CLR 84.9 75.9 75% 94 30.06 1018.3
20 15:57 S 15 7.00 Fair CLR 86 75.9 72% 96 30.08 1018.7
20 14:57 SW 16 7.00 Fair CLR 86 77 75% 97 30.09 1019.3
20 13:57 S 15 7.00 Fair CLR 86 75.9 87.1 79 72% 96 30.11 1020.0
20 12:57 SW 17 7.00 Fair CLR 86 75.9 72% 96 30.13 1020.5
20 11:57 SW 14 7.00 Fair CLR 86 75 70% 95 30.13 1020.5
20 10:57 SW 13 7.00 Fair CLR 84 75 74% 92 30.12 1020.1
20 09:57 SW 9 6.00 A Few Clouds with Haze FEW014 82.9 75.9 79% 91 30.13 1020.5
20 08:57 SW 9 6.00 A Few Clouds with Haze FEW012 82 77 85% 90 30.13 1020.5
20 07:57 SW 6 6.00 Fog/Mist FEW015 SCT085 BKN100 79 75.9 79 75 90% 83 30.13 1020.5 0.24
20 06:57 SW 9 G 17 6.00 Fog/Mist FEW100 78.1 75 90% 81 30.11 1019.9
20 05:57 SW 5 7.00 Fair CLR 77 73.9 90% 78 30.08 1018.8
20 04:57 SW 5 7.00 Fair CLR 75.9 73.9 94% 75 30.07 1018.5 0.02 0.24
20 03:57 SW 7 6.00 Light Rain Fog/Mist CLR 75.9 73.9 94% 75 30.09 1019.1 0.09
20 02:57 SW 8 6.00 Rain Fog/Mist CLR 75 73 94% 73 30.09 1019.3 0.13
20 01:57 SW 9 3.00 Thunderstorm Heavy Rain Fog/Mist BKN090 OVC120 75.9 73 81 75 91% 76 30.11 1019.9 0.19 0.6
20 00:57 S 13 7.00 Thunderstorm SCT019 77 75 94% 78 30.12 1020.1
19 23:57 Calm 6.00 Fog/Mist SCT018 75.9 75 97% 75 30.11 1020.0 0.32
19 22:53 NW 12 2.50 Thunderstorm Heavy Rain Fog/Mist SCT016 BKN021 OVC035 77 73 88% 78 30.12 1020.3 0.09 0.09
19 21:57 SW 13 7.00 Thunderstorm SCT014 BKN020 81 77 88% 88 30.11 1019.9
19 20:57 SW 10 7.00 Partly Cloudy SCT015 81 77 88% 88 30.1 1019.6
19 19:57 SW 8 6.00 Fair with Haze CLR 81 75.9 84 81 85% 87 30.08 1018.9
19 18:57 S 10 7.00 A Few Clouds FEW120 82.9 75 77% 90 30.05 1018.0
19 17:57 SW 9 7.00 Thunderstorm SCT110 82.9 73 72% 89 30.05 1018.0
19 16:57 SW 8 7.00 Thunderstorm CLR 82.9 75 77% 90 30.05 1017.9
19 15:57 SW 8 7.00 Fair CLR 82.9 75.9 79% 91 30.06 1018.2
19 14:57 S 9 7.00 A Few Clouds FEW016 82.9 75.9 79% 91 30.07 1018.6
19 13:57 S 8 7.00 Partly Cloudy FEW060 SCT070 SCT090 82.9 75 84 78.1 77% 90 30.09 1019.4
19 12:57 S 6 7.00 Thunderstorm CLR 82.9 73 72% 89 30.09 1019.3
19 11:57 S 8 7.00 Fair CLR 82 73.9 77% 88 30.1 1019.5
19 10:57 W 7 7.00 Fair CLR 81 72 74% 85 30.09 1019.3
19 09:57 SW 6 7.00 Partly Cloudy SCT014 79 73 82% 82 30.09 1019.2
19 08:57 N 3 7.00 A Few Clouds FEW021 78.1 73.9 87% 81 30.09 1019.4
19 07:57 NW 3 6.00 Fog/Mist NULL 75 73 75 72 94% 73 30.09 1019.1 0.02
19 06:57 Calm 6.00 Fog/Mist CLR 73 73 100% 30.06 1018.3
19 05:57 Calm 7.00 Fair CLR 73 72 96% 30.04 1017.7
19 04:57 Calm 6.00 Fog/Mist CLR 73 72 96% 30.01 1016.5 0.02
19 03:57 Calm 7.00 Fair CLR 73 73 100% 29.98 1015.6
19 02:57 Calm 7.00 A Few Clouds FEW120 73 72 96% 29.98 1015.6 0.02
19 01:57 Calm 4.00 Light Rain Fog/Mist FEW024 BKN035 BKN055 73 73 82.9 73 100% 30.03 1017.3 0.39 0.75
19 00:57 E 6 8.00 Partly Cloudy SCT045 SCT055 73.9 72 94% 30.01 1016.5
18 23:57 E 6 8.00 Thunderstorm FEW120 73.9 72 94% 30.04 1017.5 0.07
18 22:57 N 6 6.00 Thunderstorm Light Rain Fog/Mist FEW044 OVC055 73.9 73 97% 30.05 1017.9 0.29 0.29
18 21:57 NW 14 G 28 7.00 Overcast BKN018 BKN023 OVC030 79 72 79% 82 30.02 1016.9
18 20:57 SW 12 G 23 6.00 Fog/Mist BKN012 82 79 90% 92 30 1016.1
18 19:57 SW 15 G 26 5.00 Fog/Mist FEW014 82 78.1 86 82 88% 91 29.96 1015.0
18 18:57 SW 16 G 30 6.00 Fair with Haze CLR 84 77 80% 94 29.95 1014.4
Date Time (edt) Wind (mph) Vis. (mi.) Weather Sky Cond. Air Dwpt Max. Min. Relative Humidity Wind Chill (°F) Heat Index (°F) altimeter (in) sea level (mb) 1 hr 3 hr 6 hr
6 hour
Temperature (ºF) Pressure Precipitation (in)